NI4CE-10 Weather Reports


Display with metric or nautical units.
time (UTC)temp
F
wind
direction
speed
MPH
gust
MPH
rain 1hr
in
rain 24hr
in
rain mn
in
humidity
%
barometer
mb
20260506051044 68 67 0.0 1.0 0.00 0.00 0.00 100 1019.1
20260506050544 68 78 0.0 2.0 0.00 0.00 0.00 100 1019.1
20260506050253 69 91 0.0 0.0 0.00 0.00 0.00 100 1019.1
20260506045044 69 57 0.0 1.0 0.00 0.00 0.00 100 1019.2
20260506045037 69 97 1.0 1.0 0.00 0.00 0.00 100 1019.1
20260506044544 69 97 1.0 1.0 0.00 0.00 0.00 100 1019.1
20260506044252 70 90 1.0 2.0 0.00 0.00 0.00 100 1019.1
20260506044044 70 90 1.0 2.0 0.00 0.00 0.00 100 1019.1
20260506043717 71 87 1.0 3.0 0.00 0.00 0.00 100 1019.1
20260506043544 71 87 1.0 3.0 0.00 0.00 0.00 100 1019.1
20260506043133 71 132 2.0 3.0 0.00 0.00 0.00 100 1019.0
20260506043044 71 116 1.0 3.0 0.00 0.00 0.00 100 1019.1
20260506042544 71 132 2.0 3.0 0.00 0.00 0.00 100 1019.0
20260506042331 71 92 2.0 4.0 0.00 0.00 0.00 100 1019.0
20260506042044 71 139 3.0 4.0 0.00 0.00 0.00 100 1018.9
20260506041544 71 92 2.0 4.0 0.00 0.00 0.00 100 1019.0
20260506041139 71 119 3.0 5.0 0.00 0.00 0.00 100 1019.0
20260506041044 71 119 3.0 5.0 0.00 0.00 0.00 100 1019.0
20260506040716 71 102 2.0 3.0 0.00 0.00 0.00 100 1019.0
20260506040544 71 102 2.0 3.0 0.00 0.00 0.00 100 1019.0
20260506040204 71 123 1.0 3.0 0.00 0.00 0.00 100 1018.9
20260506040044 71 123 1.0 3.0 0.00 0.00 0.00 100 1018.9
20260506035804 72 95 2.0 4.0 0.00 0.00 0.00 100 1019.1
20260506035544 72 91 1.0 3.0 0.00 0.00 0.00 100 1019.0
20260506035044 72 95 2.0 4.0 0.00 0.00 0.00 100 1019.1
20260506034544 72 71 2.0 3.0 0.00 0.00 0.00 100 1019.1
20260506034044 73 111 2.0 3.0 0.00 0.00 0.00 100 1019.2
20260506033705 73 113 2.0 3.0 0.00 0.00 0.00 100 1019.1
20260506033544 73 80 3.0 3.0 0.00 0.00 0.00 100 1019.2
20260506033044 73 113 2.0 3.0 0.00 0.00 0.00 100 1019.1
20260506033008 73 149 3.0 5.0 0.00 0.00 0.00 100 1019.2
20260506032544 73 149 3.0 5.0 0.00 0.00 0.00 100 1019.2
20260506032234 74 92 3.0 5.0 0.00 0.00 0.00 100 1019.1
20260506032044 74 150 2.0 5.0 0.00 0.00 0.00 100 1019.1
20260506031544 74 92 3.0 5.0 0.00 0.00 0.00 100 1019.1
20260506031210 74 104 2.0 5.0 0.00 0.00 0.00 100 1019.1
20260506031044 74 104 2.0 5.0 0.00 0.00 0.00 100 1019.1
20260506030702 74 95 4.0 5.0 0.00 0.00 0.00 100 1019.0
20260506030544 74 95 4.0 5.0 0.00 0.00 0.00 100 1019.0
20260506030420 75 125 4.0 5.0 0.00 0.00 0.00 100 1019.0
20260506030044 75 125 4.0 5.0 0.00 0.00 0.00 100 1019.0
20260506025548 75 59 4.0 6.0 0.00 0.00 0.00 100 1019.0
20260506025544 75 129 4.0 6.0 0.00 0.00 0.00 100 1019.0
20260506025134 75 120 2.0 6.0 0.00 0.00 0.00 100 1018.9
20260506025044 75 59 4.0 6.0 0.00 0.00 0.00 100 1019.0
20260506024545 75 120 2.0 6.0 0.00 0.00 0.00 100 1018.9
20260506024531 75 120 3.0 7.0 0.00 0.00 0.00 100 1018.9
20260506024045 75 120 3.0 7.0 0.00 0.00 0.00 100 1018.9
20260506024031 75 46 1.0 9.0 0.00 0.00 0.00 100 1018.8
20260506023545 75 46 1.0 9.0 0.00 0.00 0.00 100 1018.8
20260506023045 75 82 2.0 4.0 0.00 0.00 0.00 100 1018.8
20260506022631 75 109 2.0 8.0 0.00 0.00 0.00 100 1018.7
20260506022545 75 137 4.0 5.0 0.00 0.00 0.00 100 1018.7
20260506022045 75 109 2.0 8.0 0.00 0.00 0.00 100 1018.7
20260506021740 74 106 6.0 7.0 0.00 0.00 0.00 100 1018.6
20260506021545 74 106 6.0 7.0 0.00 0.00 0.00 100 1018.6
20260506021045 74 2 0.0 3.0 0.00 0.00 0.00 100 1018.6
20260506021037 74 97 3.0 6.0 0.00 0.00 0.00 100 1018.7
20260506020629 74 97 3.0 6.0 0.00 0.00 0.00 100 1018.7
20260506020545 74 97 3.0 6.0 0.00 0.00 0.00 100 1018.7
20260506020045 73 130 4.0 6.0 0.00 0.00 0.00 100 1018.6
20260506015933 74 19 0.0 4.0 0.00 0.00 0.00 100 1018.5
20260506015545 74 19 0.0 4.0 0.00 0.00 0.00 100 1018.5
20260506015503 73 26 1.0 2.0 0.00 0.00 0.00 100 1018.5
20260506015045 73 26 1.0 2.0 0.00 0.00 0.00 100 1018.5
20260506014545 74 98 2.0 3.0 0.00 0.00 0.00 100 1018.4
20260506014533 74 109 2.0 3.0 0.00 0.00 0.00 100 1018.3
20260506014045 74 109 2.0 3.0 0.00 0.00 0.00 100 1018.3
20260506013828 75 19 1.0 5.0 0.00 0.00 0.00 100 1018.3
20260506013545 75 19 1.0 5.0 0.00 0.00 0.00 100 1018.3
20260506013504 75 333 3.0 8.0 0.00 0.00 0.00 100 1018.1
20260506013413 75 358 4.0 5.0 0.00 0.00 0.00 100 1018.3
20260506013141 75 358 4.0 5.0 0.00 0.00 0.00 100 1018.3
20260506013045 75 358 4.0 5.0 0.00 0.00 0.00 100 1018.3
20260506013017 75 333 3.0 8.0 0.00 0.00 0.00 100 1018.1
20260506012545 75 333 3.0 8.0 0.00 0.00 0.00 100 1018.1
20260506012045 75 330 5.0 6.0 0.00 0.00 0.00 100 1018.2
20260506012042 75 350 4.0 4.0 0.00 0.00 0.00 100 1018.1
20260506011758 75 358 3.0 4.0 0.00 0.00 0.00 100 1018.2
20260506011551 75 350 4.0 4.0 0.00 0.00 0.00 100 1018.1
20260506011545 75 358 3.0 4.0 0.00 0.00 0.00 100 1018.2
20260506011045 75 350 4.0 4.0 0.00 0.00 0.00 100 1018.1
20260506010800 75 4 0.0 0.0 0.00 0.00 0.00 100 1018.0
20260506010545 75 4 0.0 0.0 0.00 0.00 0.00 100 1018.0
20260506010045 76 4 0.0 1.0 0.00 0.00 0.00 100 1018.0
20260506005900 76 333 0.0 2.0 0.00 0.00 0.00 100 1017.9
20260506005747 76 333 0.0 2.0 0.00 0.00 0.00 100 1017.9
20260506005545 76 333 0.0 2.0 0.00 0.00 0.00 100 1017.9
20260506005530 76 14 0.0 2.0 0.00 0.00 0.00 100 1017.8
20260506005239 77 26 0.0 4.0 0.00 0.00 0.00 100 1017.6
20260506005045 76 14 0.0 2.0 0.00 0.00 0.00 100 1017.8
20260506005032 76 2 0.0 0.0 0.00 0.00 0.00 100 1017.9
20260506004545 76 2 0.0 0.0 0.00 0.00 0.00 100 1017.9
20260506004510 77 2 0.0 0.0 0.00 0.00 0.00 100 1017.8
20260506004045 77 2 0.0 0.0 0.00 0.00 0.00 100 1017.8
20260506003816 77 2 0.0 0.0 0.00 0.00 0.00 100 1017.7
20260506003545 77 2 0.0 0.0 0.00 0.00 0.00 100 1017.7
20260506003045 77 2 0.0 2.0 0.00 0.00 0.00 100 1017.7
20260506002940 77 26 0.0 4.0 0.00 0.00 0.00 100 1017.6
20260506002545 77 26 0.0 4.0 0.00 0.00 0.00 100 1017.6
20260506002404 77 1 0.0 1.0 0.00 0.00 0.00 100 1017.6
20260506002045 77 1 0.0 1.0 0.00 0.00 0.00 100 1017.6
20260506001824 78 315 1.0 6.0 0.00 0.00 0.00 100 1017.3
20260506001545 78 337 0.0 4.0 0.00 0.00 0.00 100 1017.4
20260506001045 78 315 1.0 6.0 0.00 0.00 0.00 100 1017.3
20260506000720 79 7 4.0 7.0 0.00 0.00 0.00 100 1017.0
20260506000545 78 337 3.0 5.0 0.00 0.00 0.00 100 1017.2
20260506000045 79 319 2.0 7.0 0.00 0.00 0.00 100 1017.0
20260505235748 79 336 2.0 7.0 0.00 0.00 0.00 100 1017.0
20260505235545 79 7 4.0 7.0 0.00 0.00 0.00 100 1017.0
20260505235310 79 336 2.0 7.0 0.00 0.00 0.00 100 1017.0
20260505235045 79 336 2.0 7.0 0.00 0.00 0.00 100 1017.0
20260505234923 80 358 3.0 7.0 0.00 0.00 0.00 100 1016.9
20260505234812 80 358 3.0 7.0 0.00 0.00 0.00 100 1016.9
20260505234545 80 358 3.0 7.0 0.00 0.00 0.00 100 1016.9
20260505234529 80 350 4.0 9.0 0.00 0.00 0.00 100 1016.7
20260505234457 80 350 4.0 9.0 0.00 0.00 0.00 100 1016.7
20260505234045 80 350 4.0 9.0 0.00 0.00 0.00 100 1016.7
20260505233952 81 2 0.0 7.0 0.00 0.00 0.00 100 1016.7
20260505233545 81 2 0.0 7.0 0.00 0.00 0.00 100 1016.7
20260505233457 82 1 1.0 7.0 0.00 0.00 0.00 100 1016.8
20260505233329 82 1 1.0 7.0 0.00 0.00 0.00 100 1016.8
20260505233045 82 1 1.0 7.0 0.00 0.00 0.00 100 1016.8
20260505233026 82 7 4.0 11.0 0.00 0.00 0.00 100 1016.7
20260505232838 82 7 4.0 11.0 0.00 0.00 0.00 100 1016.7
20260505232545 82 7 4.0 11.0 0.00 0.00 0.00 100 1016.7
20260505232317 83 337 6.0 11.0 0.00 0.00 0.00 100 1016.7
20260505232045 83 337 6.0 11.0 0.00 0.00 0.00 100 1016.7
20260505231933 83 307 8.0 12.0 0.00 0.00 0.00 100 1016.6
20260505231858 83 307 8.0 12.0 0.00 0.00 0.00 100 1016.6
20260505231545 83 307 8.0 12.0 0.00 0.00 0.00 100 1016.6
20260505231120 83 14 4.0 11.0 0.00 0.00 0.00 100 1016.6
20260505231045 83 14 4.0 11.0 0.00 0.00 0.00 100 1016.6
20260505230817 83 347 5.0 9.0 0.00 0.00 0.00 100 1016.6
20260505230545 83 347 5.0 9.0 0.00 0.00 0.00 100 1016.6
20260505230228 83 284 3.0 10.0 0.00 0.00 0.00 100 1016.6
20260505230045 83 284 3.0 10.0 0.00 0.00 0.00 100 1016.6
20260505230035 83 289 3.0 9.0 0.00 0.00 0.00 100 1016.6
20260505225728 83 289 3.0 9.0 0.00 0.00 0.00 100 1016.6
20260505225545 83 289 3.0 9.0 0.00 0.00 0.00 100 1016.6
20260505225045 83 271 3.0 8.0 0.00 0.00 0.00 100 1016.5
20260505224935 83 264 3.0 10.0 0.00 0.00 0.00 100 1016.6
20260505224546 83 264 3.0 10.0 0.00 0.00 0.00 100 1016.6
20260505224046 83 257 4.0 11.0 0.00 0.00 0.00 100 1016.5
20260505224018 84 286 2.0 9.0 0.00 0.00 0.00 100 1016.5
20260505223546 84 286 2.0 9.0 0.00 0.00 0.00 100 1016.5
20260505223046 84 312 5.0 11.0 0.00 0.00 0.00 100 1016.5
20260505222814 83 293 7.0 11.0 0.00 0.00 0.00 100 1016.4
20260505222546 83 293 7.0 11.0 0.00 0.00 0.00 100 1016.4
20260505222520 84 278 6.0 11.0 0.00 0.00 0.00 100 1016.3
20260505222046 84 278 6.0 11.0 0.00 0.00 0.00 100 1016.3
20260505221810 84 323 3.0 13.0 0.00 0.00 0.00 100 1016.3
20260505221546 84 323 3.0 13.0 0.00 0.00 0.00 100 1016.3
20260505221301 84 284 4.0 11.0 0.00 0.00 0.00 100 1016.4
20260505221046 84 284 4.0 11.0 0.00 0.00 0.00 100 1016.4
20260505220546 85 278 9.0 11.0 0.00 0.00 0.00 100 1016.4
20260505220046 85 289 7.0 12.0 0.00 0.00 0.00 100 1016.3
20260505215812 86 267 6.0 11.0 0.00 0.00 0.00 100 1016.3
20260505215546 86 267 6.0 11.0 0.00 0.00 0.00 100 1016.3
20260505215046 86 300 6.0 12.0 0.00 0.00 0.00 100 1016.3
20260505214744 87 23 2.0 7.0 0.00 0.00 0.00 100 1016.1
20260505214546 87 282 3.0 13.0 0.00 0.00 0.00 100 1016.2
20260505214046 87 264 6.0 9.0 0.00 0.00 0.00 100 1016.2
20260505213642 88 309 6.0 10.0 0.00 0.00 0.00 100 1016.1
20260505213546 88 309 6.0 10.0 0.00 0.00 0.00 100 1016.1
20260505213046 87 23 2.0 7.0 0.00 0.00 0.00 100 1016.1
20260505213002 88 85 3.0 5.0 0.00 0.00 0.00 100 1016.1
20260505212546 87 262 4.0 7.0 0.00 0.00 0.00 100 1016.0
20260505212311 88 310 0.0 5.0 0.00 0.00 0.00 100 1016.1
20260505212046 88 310 0.0 5.0 0.00 0.00 0.00 100 1016.1
20260505211546 89 146 0.0 5.0 0.00 0.00 0.00 100 1016.1
20260505211046 88 85 3.0 5.0 0.00 0.00 0.00 100 1016.1
20260505210921 92 37 0.0 0.0 0.00 0.00 0.00 100 1016.1
20260505210546 92 37 0.0 0.0 0.00 0.00 0.00 100 1016.1
20260505210046 91 37 0.0 3.0 0.00 0.00 0.00 100 1016.1
20260505205952 91 11 0.0 5.0 0.00 0.00 0.00 100 1016.0
20260505205546 91 11 0.0 5.0 0.00 0.00 0.00 100 1016.0
20260505205110 90 165 2.0 3.0 0.00 0.00 0.00 100 1016.1
20260505205046 90 316 2.0 3.0 0.00 0.00 0.00 100 1016.1
20260505204546 89 74 2.0 6.0 0.00 0.00 0.00 100 1016.1
20260505204137 90 165 2.0 3.0 0.00 0.00 0.00 100 1016.1
20260505204046 90 165 2.0 3.0 0.00 0.00 0.00 100 1016.1
20260505203804 90 7 0.0 2.0 0.00 0.00 0.00 100 1016.2
20260505203546 90 7 0.0 2.0 0.00 0.00 0.00 100 1016.2
20260505203217 90 40 0.0 2.0 0.00 0.00 0.00 100 1016.2
20260505203046 90 40 0.0 2.0 0.00 0.00 0.00 100 1016.2
20260505202546 88 43 0.0 7.0 0.00 0.00 0.00 100 1016.3
20260505202204 89 116 4.0 6.0 0.00 0.00 0.00 100 1016.4
20260505202132 89 116 4.0 6.0 0.00 0.00 0.00 100 1016.4
20260505202046 89 116 4.0 6.0 0.00 0.00 0.00 100 1016.4
20260505201640 88 88 4.0 6.0 0.00 0.00 0.00 100 1016.4
20260505201546 88 88 4.0 6.0 0.00 0.00 0.00 100 1016.4
20260505201147 88 99 0.0 7.0 0.00 0.00 0.00 100 1016.5
20260505201046 88 99 0.0 7.0 0.00 0.00 0.00 100 1016.5
20260505200546 89 164 6.0 7.0 0.00 0.00 0.00 100 1016.5
20260505200046 89 82 0.0 9.0 0.00 0.00 0.00 100 1016.5
20260505195959 88 122 4.0 8.0 0.00 0.00 0.00 100 1016.6
20260505195710 89 158 6.0 7.0 0.00 0.00 0.00 100 1016.5
20260505195546 89 158 6.0 7.0 0.00 0.00 0.00 100 1016.5
20260505195207 89 272 0.0 8.0 0.00 0.00 0.00 100 1016.4
20260505195118 89 272 0.0 8.0 0.00 0.00 0.00 100 1016.4
20260505195046 89 272 0.0 8.0 0.00 0.00 0.00 100 1016.4
20260505194546 88 122 4.0 8.0 0.00 0.00 0.00 100 1016.6
20260505194151 88 154 4.0 7.0 0.00 0.00 0.00 100 1016.6
20260505194046 88 154 4.0 7.0 0.00 0.00 0.00 100 1016.6
20260505193651 89 102 2.0 6.0 0.00 0.00 0.00 100 1016.6
20260505193546 89 102 2.0 6.0 0.00 0.00 0.00 100 1016.6
20260505193156 89 46 0.0 8.0 0.00 0.00 0.00 100 1016.6
20260505193136 89 22 5.0 9.0 0.00 0.00 0.00 100 1016.6
20260505193046 89 46 0.0 8.0 0.00 0.00 0.00 100 1016.6
20260505192546 89 22 5.0 9.0 0.00 0.00 0.00 100 1016.6
20260505192506 88 78 0.0 8.0 0.00 0.00 0.00 100 1016.7
20260505192144 89 216 0.0 6.0 0.00 0.00 0.00 100 1016.6
20260505192046 89 216 0.0 6.0 0.00 0.00 0.00 100 1016.6
20260505191642 88 78 0.0 8.0 0.00 0.00 0.00 100 1016.7
20260505191546 88 78 0.0 8.0 0.00 0.00 0.00 100 1016.7
20260505191314 88 74 3.0 8.0 0.00 0.00 0.00 100 1016.9
20260505191202 88 74 3.0 8.0 0.00 0.00 0.00 100 1016.9
20260505191046 88 74 3.0 8.0 0.00 0.00 0.00 100 1016.9
20260505190715 88 227 1.0 8.0 0.00 0.00 0.00 100 1016.9
20260505190546 88 227 1.0 8.0 0.00 0.00 0.00 100 1016.9
20260505190207 88 150 0.0 3.0 0.00 0.00 0.00 100 1016.9
20260505190046 88 150 0.0 3.0 0.00 0.00 0.00 100 1016.9
20260505185819 88 149 3.0 9.0 0.00 0.00 0.00 100 1016.9
20260505185547 88 149 3.0 9.0 0.00 0.00 0.00 100 1016.9
20260505185142 90 336 0.0 7.0 0.00 0.00 0.00 100 1016.9
20260505185047 90 336 0.0 7.0 0.00 0.00 0.00 100 1016.9
20260505184715 87 25 1.0 8.0 0.00 0.00 0.00 100 1017.0
20260505184547 87 25 1.0 8.0 0.00 0.00 0.00 100 1017.0
20260505184047 88 88 4.0 8.0 0.00 0.00 0.00 100 1017.1
20260505183651 88 129 0.0 8.0 0.00 0.00 0.00 100 1017.1
20260505183628 89 104 5.0 7.0 0.00 0.00 0.00 100 1017.1
20260505183547 88 129 0.0 8.0 0.00 0.00 0.00 100 1017.1
20260505183215 89 104 5.0 7.0 0.00 0.00 0.00 100 1017.1
20260505183047 89 104 5.0 7.0 0.00 0.00 0.00 100 1017.1
20260505182717 87 123 4.0 9.0 0.00 0.00 0.00 100 1017.2
20260505182547 87 123 4.0 9.0 0.00 0.00 0.00 100 1017.2
20260505182215 86 91 5.0 9.0 0.00 0.00 0.00 100 1017.4
20260505182047 86 91 5.0 9.0 0.00 0.00 0.00 100 1017.4
20260505181643 86 92 2.0 8.0 0.00 0.00 0.00 100 1017.5
20260505181547 86 92 2.0 8.0 0.00 0.00 0.00 100 1017.5
20260505181239 89 33 0.0 5.0 0.00 0.00 0.00 100 1017.5
20260505181047 89 33 0.0 5.0 0.00 0.00 0.00 100 1017.5
20260505180547 89 165 4.0 7.0 0.00 0.00 0.00 100 1017.5
20260505180317 89 146 5.0 9.0 0.00 0.00 0.00 100 1017.6
20260505180047 89 146 5.0 9.0 0.00 0.00 0.00 100 1017.6
20260505175547 88 32 1.0 6.0 0.00 0.00 0.00 100 1017.7
20260505175202 87 99 6.0 10.0 0.00 0.00 0.00 100 1017.7
20260505175047 87 99 6.0 10.0 0.00 0.00 0.00 100 1017.7
20260505174811 87 61 2.0 9.0 0.00 0.00 0.00 100 1017.6
20260505174547 87 61 2.0 9.0 0.00 0.00 0.00 100 1017.6
20260505174321 86 136 6.0 8.0 0.00 0.00 0.00 100 1017.8
20260505174047 86 136 6.0 8.0 0.00 0.00 0.00 100 1017.8
20260505173547 86 98 3.0 8.0 0.00 0.00 0.00 100 1017.9
20260505173217 87 161 5.0 8.0 0.00 0.00 0.00 100 1017.9
20260505173047 87 161 5.0 8.0 0.00 0.00 0.00 100 1017.9
20260505172547 88 95 4.0 8.0 0.00 0.00 0.00 100 1018.0
20260505172147 85 175 1.0 5.0 0.00 0.00 0.00 100 1018.0
20260505172047 85 175 1.0 5.0 0.00 0.00 0.00 100 1018.0
20260505171643 86 42 0.0 5.0 0.00 0.00 0.00 100 1018.1
20260505171547 86 42 0.0 5.0 0.00 0.00 0.00 100 1018.1
20260505171203 83 85 2.0 6.0 0.00 0.00 0.00 100 1018.2
20260505171047 83 85 2.0 6.0 0.00 0.00 0.00 100 1018.2
20260505170547 83 84 3.0 8.0 0.00 0.00 0.00 100 1018.2
20260505170047 84 74 4.0 8.0 0.00 0.00 0.00 100 1018.2
20260505165754 83 59 4.0 8.0 0.00 0.00 0.00 100 1018.1
20260505165547 83 59 4.0 8.0 0.00 0.00 0.00 100 1018.1
20260505165047 83 90 4.0 7.0 0.00 0.00 0.00 100 1018.2
20260505164713 83 111 2.0 8.0 0.00 0.00 0.00 100 1018.2
20260505164547 83 111 2.0 8.0 0.00 0.00 0.00 100 1018.2
20260505164208 85 123 1.0 11.0 0.00 0.00 0.00 100 1018.3
20260505164047 85 123 1.0 11.0 0.00 0.00 0.00 100 1018.3
20260505163810 83 142 7.0 7.0 0.00 0.00 0.00 100 1018.3
20260505163547 83 142 7.0 7.0 0.00 0.00 0.00 100 1018.3
20260505163332 85 187 2.0 11.0 0.00 0.00 0.00 100 1018.3
20260505163047 85 187 2.0 11.0 0.00 0.00 0.00 100 1018.3
20260505162657 84 81 10.0 11.0 0.00 0.00 0.00 100 1018.3
20260505162547 84 81 10.0 11.0 0.00 0.00 0.00 100 1018.3
20260505162047 86 80 4.0 7.0 0.00 0.00 0.00 100 1018.2
20260505161711 85 80 7.0 9.0 0.00 0.00 0.00 100 1018.2
20260505161547 85 80 7.0 9.0 0.00 0.00 0.00 100 1018.2
20260505161047 83 153 4.0 10.0 0.00 0.00 0.00 100 1018.3
20260505160657 82 112 0.0 11.0 0.00 0.00 0.00 100 1018.4
20260505160547 82 112 0.0 11.0 0.00 0.00 0.00 100 1018.4
20260505160257 83 87 7.0 11.0 0.00 0.00 0.00 100 1018.4
20260505153135 80 112 5.0 10.0 0.00 0.00 0.00 100 1018.6
20260505153047 80 112 5.0 10.0 0.00 0.00 0.00 100 1018.6
20260505152654 80 111 6.0 8.0 0.00 0.00 0.00 100 1018.7
20260505152547 80 111 6.0 8.0 0.00 0.00 0.00 100 1018.7
20260505152047 81 164 4.0 10.0 0.00 0.00 0.00 100 1018.6
20260505151712 81 150 7.0 11.0 0.00 0.00 0.00 100 1018.6
20260505151547 81 150 7.0 11.0 0.00 0.00 0.00 100 1018.6
20260505151238 82 90 6.0 12.0 0.00 0.00 0.00 100 1018.7
20260505151047 82 90 6.0 12.0 0.00 0.00 0.00 100 1018.7
20260505150654 83 82 6.0 11.0 0.00 0.00 0.00 100 1018.7
20260505150547 83 82 6.0 11.0 0.00 0.00 0.00 100 1018.7
20260505150310 81 81 6.0 13.0 0.00 0.00 0.00 100 1018.7
20260505140548 79 135 10.0 12.0 0.00 0.00 0.00 100 1018.1
20260505124832 75 120 4.0 9.0 0.00 0.00 0.00 100 1017.9
20260505124548 75 120 4.0 9.0 0.00 0.00 0.00 100 1017.9
20260505124048 75 81 3.0 8.0 0.00 0.00 0.00 100 1017.9
20260505123834 74 80 4.0 8.0 0.00 0.00 0.00 100 1017.9
20260505123634 73 91 4.0 7.0 0.00 0.00 0.00 100 1017.9
20260505123548 74 80 4.0 8.0 0.00 0.00 0.00 100 1017.9
20260505123513 73 91 4.0 7.0 0.00 0.00 0.00 100 1017.9
20260505123048 73 91 4.0 7.0 0.00 0.00 0.00 100 1017.9
20260505123022 73 94 6.0 7.0 0.00 0.00 0.00 100 1018.0
20260505122548 73 94 6.0 7.0 0.00 0.00 0.00 100 1018.0
20260505122048 73 149 6.0 8.0 0.00 0.00 0.00 100 1017.9
20260505121738 70 144 2.0 7.0 0.00 0.00 0.00 100 1017.7
20260505121548 72 118 3.0 6.0 0.00 0.00 0.00 100 1017.9
20260505121048 72 87 3.0 5.0 0.00 0.00 0.00 100 1017.9
20260505120617 70 144 2.0 7.0 0.00 0.00 0.00 100 1017.7
20260505120548 71 106 3.0 6.0 0.00 0.00 0.00 100 1017.8
20260505120048 70 144 2.0 7.0 0.00 0.00 0.00 100 1017.7
20260505115548 70 91 5.0 7.0 0.00 0.00 0.00 100 1017.7
20260505115048 70 109 3.0 6.0 0.00 0.00 0.00 100 1017.6
20260505114548 69 67 2.0 6.0 0.00 0.00 0.00 100 1017.5
20260505114229 68 71 3.0 5.0 0.00 0.00 0.00 100 1017.4
20260505114048 68 71 3.0 5.0 0.00 0.00 0.00 100 1017.4
20260505113548 68 97 1.0 4.0 0.00 0.00 0.00 100 1017.2
20260505113412 67 66 0.0 0.0 0.00 0.00 0.00 100 1017.1
20260505113136 66 66 0.0 0.0 0.00 0.00 0.00 100 1017.2
20260505113048 67 66 0.0 0.0 0.00 0.00 0.00 100 1017.1
20260505113040 65 85 0.0 3.0 0.00 0.00 0.00 100 1017.0
20260505112548 66 66 0.0 0.0 0.00 0.00 0.00 100 1017.2
20260505112059 65 75 0.0 4.0 0.00 0.00 0.00 100 1017.1
20260505112048 65 85 0.0 3.0 0.00 0.00 0.00 100 1017.0
20260505111852 65 75 0.0 4.0 0.00 0.00 0.00 100 1017.1
20260505111548 65 75 0.0 4.0 0.00 0.00 0.00 100 1017.1
20260505111048 65 88 2.0 5.0 0.00 0.00 0.00 100 1016.9
20260505110548 65 57 3.0 5.0 0.00 0.00 0.00 100 1017.0
20260505102215 64 47 0.0 3.0 0.00 0.00 0.00 100 1016.8
20260505102049 64 47 0.0 3.0 0.00 0.00 0.00 100 1016.8
20260505101828 64 70 0.0 0.0 0.00 0.00 0.00 100 1016.6
20260505101549 64 67 1.0 3.0 0.00 0.00 0.00 100 1016.7
20260505101049 64 70 0.0 0.0 0.00 0.00 0.00 100 1016.6
20260505101027 64 70 0.0 0.0 0.00 0.00 0.00 100 1016.5
20260505100821 64 70 0.0 0.0 0.00 0.00 0.00 100 1016.7
20260505100549 64 70 0.0 0.0 0.00 0.00 0.00 100 1016.7
20260505100049 64 70 0.0 0.0 0.00 0.00 0.00 100 1016.6
20260505095549 64 70 0.0 0.0 0.00 0.00 0.00 100 1016.5
20260505095455 64 70 0.0 0.0 0.00 0.00 0.00 100 1016.5
20260505095054 64 33 0.0 3.0 0.00 0.00 0.00 100 1016.5
20260505095049 64 70 0.0 0.0 0.00 0.00 0.00 100 1016.5
20260505094549 64 33 0.0 3.0 0.00 0.00 0.00 100 1016.5
20260505094049 64 68 2.0 3.0 0.00 0.00 0.00 100 1016.5
20260505093549 64 53 0.0 3.0 0.00 0.00 0.00 100 1016.4
20260505093255 64 95 1.0 2.0 0.00 0.00 0.00 100 1016.4
20260505093049 64 95 1.0 2.0 0.00 0.00 0.00 100 1016.4
20260505092549 64 95 1.0 2.0 0.00 0.00 0.00 100 1016.4
20260505092049 64 73 0.0 3.0 0.00 0.00 0.00 100 1016.4
20260505091549 64 59 0.0 3.0 0.00 0.00 0.00 100 1016.3
20260505091335 64 59 1.0 3.0 0.00 0.00 0.00 100 1016.2
20260505091049 64 59 1.0 3.0 0.00 0.00 0.00 100 1016.2
20260505090549 64 94 1.0 2.0 0.00 0.00 0.00 100 1016.2
20260505090509 64 111 1.0 3.0 0.00 0.00 0.00 100 1016.3
20260505090049 64 111 1.0 3.0 0.00 0.00 0.00 100 1016.3
20260505090010 64 46 0.0 2.0 0.00 0.00 0.00 100 1016.3
20260505085935 64 46 0.0 2.0 0.00 0.00 0.00 100 1016.3
20260505085549 64 46 0.0 2.0 0.00 0.00 0.00 100 1016.3
20260505085509 64 99 1.0 3.0 0.00 0.00 0.00 100 1016.2
20260505085059 65 81 0.0 1.0 0.00 0.00 0.00 100 1016.3
20260505085049 64 99 1.0 3.0 0.00 0.00 0.00 100 1016.2
20260505084802 65 81 0.0 1.0 0.00 0.00 0.00 100 1016.3
20260505084549 65 81 0.0 1.0 0.00 0.00 0.00 100 1016.3
20260505084513 65 64 0.0 1.0 0.00 0.00 0.00 100 1016.4
20260505084049 65 64 0.0 1.0 0.00 0.00 0.00 100 1016.4
20260505083549 65 40 0.0 1.0 0.00 0.00 0.00 100 1016.4
20260505083435 65 74 0.0 3.0 0.00 0.00 0.00 100 1016.2
20260505083202 65 87 2.0 4.0 0.00 0.00 0.00 100 1016.2
20260505083049 65 74 0.0 3.0 0.00 0.00 0.00 100 1016.2
20260505082549 65 81 2.0 3.0 0.00 0.00 0.00 100 1016.2
20260505082505 65 87 2.0 4.0 0.00 0.00 0.00 100 1016.2
20260505082049 65 87 2.0 4.0 0.00 0.00 0.00 100 1016.2
20260505081549 65 64 2.0 4.0 0.00 0.00 0.00 100 1016.2
20260505081323 65 97 1.0 3.0 0.00 0.00 0.00 100 1016.1
20260505081049 65 97 1.0 3.0 0.00 0.00 0.00 100 1016.1
20260505081006 65 112 3.0 3.0 0.00 0.00 0.00 100 1016.2
20260505080549 65 112 3.0 3.0 0.00 0.00 0.00 100 1016.2
20260505080515 65 104 1.0 2.0 0.00 0.00 0.00 100 1016.3
20260505080049 65 104 1.0 2.0 0.00 0.00 0.00 100 1016.3
20260505075549 65 73 0.0 1.0 0.00 0.00 0.00 100 1016.4
20260505075059 65 63 0.0 0.0 0.00 0.00 0.00 100 1016.6
20260505075049 65 63 0.0 0.0 0.00 0.00 0.00 100 1016.5
20260505074549 65 63 0.0 0.0 0.00 0.00 0.00 100 1016.6
20260505074156 65 45 0.0 2.0 0.00 0.00 0.00 100 1016.6
20260505074049 65 45 0.0 2.0 0.00 0.00 0.00 100 1016.6
20260505074019 66 57 0.0 1.0 0.00 0.00 0.00 100 1016.4
20260505073631 66 53 0.0 3.0 0.00 0.00 0.00 100 1016.6
20260505073555 66 53 0.0 3.0 0.00 0.00 0.00 100 1016.6
20260505073549 66 57 0.0 1.0 0.00 0.00 0.00 100 1016.4
20260505073519 66 53 0.0 3.0 0.00 0.00 0.00 100 1016.6
20260505073049 66 53 0.0 3.0 0.00 0.00 0.00 100 1016.6
20260505073014 66 73 1.0 2.0 0.00 0.00 0.00 100 1016.6
20260505072914 66 73 1.0 2.0 0.00 0.00 0.00 100 1016.6
20260505072549 66 73 1.0 2.0 0.00 0.00 0.00 100 1016.6
20260505072516 66 84 1.0 3.0 0.00 0.00 0.00 100 1016.5
20260505072155 66 60 0.0 5.0 0.00 0.00 0.00 100 1016.4
20260505072049 66 84 1.0 3.0 0.00 0.00 0.00 100 1016.5
20260505071549 66 68 0.0 4.0 0.00 0.00 0.00 100 1016.5
20260505071454 66 60 0.0 5.0 0.00 0.00 0.00 100 1016.4
20260505071049 66 60 0.0 5.0 0.00 0.00 0.00 100 1016.4
20260505070839 67 50 2.0 3.0 0.00 0.00 0.00 100 1016.4
20260505070549 67 50 2.0 3.0 0.00 0.00 0.00 100 1016.4
20260505070532 67 112 1.0 4.0 0.00 0.00 0.00 100 1016.6
20260505070050 67 112 1.0 4.0 0.00 0.00 0.00 100 1016.6
20260505065550 67 84 1.0 5.0 0.00 0.00 0.00 100 1016.8
20260505065521 67 81 3.0 4.0 0.00 0.00 0.00 100 1016.6
20260505065050 67 81 3.0 4.0 0.00 0.00 0.00 100 1016.6
20260505064550 67 81 2.0 4.0 0.00 0.00 0.00 100 1016.7
20260505064208 67 70 2.0 4.0 0.00 0.00 0.00 100 1016.8
20260505064050 67 70 2.0 4.0 0.00 0.00 0.00 100 1016.8
20260505063937 67 52 0.0 3.0 0.00 0.00 0.00 100 1016.9
20260505063550 67 52 0.0 3.0 0.00 0.00 0.00 100 1016.9
20260505063455 67 71 2.0 5.0 0.00 0.00 0.00 100 1017.0
20260505063349 67 71 2.0 5.0 0.00 0.00 0.00 100 1017.0
20260505063050 67 71 2.0 5.0 0.00 0.00 0.00 100 1017.0
20260505063015 68 90 1.0 4.0 0.00 0.00 0.00 100 1017.2
20260505062634 68 104 2.0 4.0 0.00 0.00 0.00 100 1017.5
20260505062550 68 90 1.0 4.0 0.00 0.00 0.00 100 1017.2
20260505062112 68 71 3.0 4.0 0.00 0.00 0.00 100 1017.4
20260505062050 68 104 2.0 4.0 0.00 0.00 0.00 100 1017.5
20260505062007 68 45 2.0 3.0 0.00 0.00 0.00 100 1017.3
20260505061550 68 45 2.0 3.0 0.00 0.00 0.00 100 1017.3
20260505061345 68 80 2.0 5.0 0.00 0.00 0.00 100 1017.4
20260505061050 68 80 2.0 5.0 0.00 0.00 0.00 100 1017.4
20260505060607 68 63 1.0 4.0 0.00 0.00 0.00 100 1017.4
20260505060550 68 88 1.0 3.0 0.00 0.00 0.00 100 1017.5
20260505060050 68 63 1.0 4.0 0.00 0.00 0.00 100 1017.4
20260505055550 68 71 3.0 4.0 0.00 0.00 0.00 100 1017.4
20260505055459 68 47 1.0 6.0 0.00 0.00 0.00 100 1017.3
20260505055050 68 47 1.0 6.0 0.00 0.00 0.00 100 1017.3
20260505054550 68 67 2.0 4.0 0.00 0.00 0.00 100 1017.5
20260505054050 68 28 0.0 5.0 0.00 0.00 0.00 100 1017.5
20260505053550 68 80 1.0 3.0 0.00 0.00 0.00 100 1017.8